User: anonymous   Login
Location: Caltech
(34.1382°N, 118.1253°W)
Time: 10:12:45
(UTC-07:00)
Language:

Oscar 19 - Orbit

View from above orbital plane
View from above orbital plane
View from above satellite
View from above satellite

Ground track
Ground track

The orbit data is extracted from the following two-line orbital elements,

1 20442U 90005G   16275.41998123  .00000042  00000-0  31406-4 0  9998
2 20442  98.5490 208.9084 0011499 186.7970 173.3060 14.32831598394563
Epoch (UTC): 01 October 2016 10:04:46
Eccentricity: 0.0011499
inclination: 98.5490°
perigee height: 774 km
apogee height: 790 km
right ascension of ascending node: 208.9084°
argument of perigee: 186.7970°
revolutions per day: 14.32831598
mean anomaly at epoch: 173.3060°
orbit number at epoch: 39456

The dashed part of the orbit path shows where the satellite is in the earth's shadow,  

DLR